Маленьга

Россия / Республика Карелия     63°51′15″N   36°27′39″E
темп.,
°C
ветер,
м/с
пор.,
м/с
влажн.,
%
обл.,
%
осадки,
мм/ч
давл.,
гПа
погр.,
м
6 мая, чт
чт600:00−2зсз1180100 0.0 100715
03:00−3ю00875 0.0 100710
06:00−1вюв117666 0.0 1007200
09:00+3в225493 0.0 1007952
12:00+6в344399 0.0 10051396
15:00+6всв5746100 0.0 1003997
18:00+4всв41061100 0.0 1000913
21:00+3в71596100 1.3 995956
7 мая, пт
пт700:00+4вюв71692100 3.9 990830
03:00+3ю61488100 4.6 991808
06:00+4ю61478100 0.0 9911235
09:00+4ююз71574100 0.1 9931312
12:00+6ююз7136979 0.1 9961439
15:00+7ююз7126062 0.2 9981641
18:00+7юз5116666 0.3 10001590
21:00+4юз4107535 0.4 1003703
8 мая, сб
сб800:00+2ююз4118297 0.0 1005569
03:00+2ю387899 0.0 1006286
06:00+3ю3790100 0.0 1007348
09:00+6ю3477100 0.0 1007747
12:00+8юв3463100 0.1 10051095
15:00+7в3585100 1.4 1004971
18:00+5св2698100 2.6 1002308
21:00+5ссв1199100 4.4 100150
9 мая, вс
вс900:00+5с1199100 1.7 99978
03:00+3ссз4798100 5.3 998273
06:00+2ссз61297100 2.4 997497
09:00+1ссз71697100 7.7 997821
12:00+3сз61578100 2.9 10001402
15:00+7зсз61366100 3.0 10041849
18:00+7з6126171 0.1 10071582
21:00+5юз513736 0.1 1011545
10 мая, пн
пн1000:00+4юз51185100 0.3 1012587
03:00+2юз31097100 1.9 1014492
06:00+4зюз388779 0.0 1015650
09:00+6юз577968 0.1 1016797
12:00+9зюз5966100 0.4 10171489
15:00+9юз5972100 0.8 10181139
18:00+8ююз4884100 0.3 1018792
21:00+6ююз4891100 0.3 1018658